This demonstration page uses our WeatherBlox Daily Observations layout. Learn more.

Left ArrowRight Arrow

39.08367, -84.50855

Hourly Observations for September 25, 2017

Temp ( °F °C ) Dew Point ( °F °C ) Humidity (%) Winds ( mph kmh ) Pressure ( in mb ) Visibility ( mi km ) Precip ( " mm )
12:53 am 00:53 Clear 62 16.7 61 16.1 96 96 N N/A 30.04 1017 10 16 N/A
1:53 am 01:53 Clear 62 16.7 61 16.1 96 96 N N/A 30.03 1017 10 16 N/A
2:53 am 02:53 Clear 61 16.1 61 16.1 100 100 N N/A 30.02 1017 10 16 N/A
3:53 am 03:53 Clear 61 16.1 61 16.1 100 100 N N/A 30.02 1017 10 16 N/A
4:53 am 04:53 Clear 60 15.6 60 15.6 100 100 N N/A 30.03 1017 10 16 N/A
5:53 am 05:53 Clear 60 15.6 60 15.6 100 100 N N/A 30.03 1017 10 16 N/A
6:15 am 06:15 Clear with Mist and Fog 60 15.6 60 15.6 100 100 N N/A 30.03 1017 2 3 N/A
6:28 am 06:28 Clear with Mist and Fog 59 15 58 14.4 96 96 N N/A 30.03 1017 4 6 N/A
6:36 am 06:36 Clear with Mist and Fog 59 15 59 15 100 100 N N/A 30.03 1017 2 2 N/A
6:46 am 06:46 Clear with Mist and Fog 60 15.6 60 15.6 100 100 N N/A 30.03 1017 4 6 N/A
6:53 am 06:53 Clear 59 15 59 15 100 100 N N/A 30.04 1017 10 16 N/A
7:08 am 07:08 Clear with Mist and Fog 60 15.6 60 15.6 100 100 N N/A 30.03 1017 3 4 N/A
7:16 am 07:16 Clear 60 15.6 60 15.6 100 100 N N/A 30.03 1017 10 16 N/A
7:53 am 07:53 Sunny 59 15 59 15 100 100 N N/A 30.06 1018 10 16 N/A
8:53 am 08:53 Sunny 65 18.3 63 17.2 93 93 N N/A 30.06 1018 10 16 N/A
9:53 am 09:53 Sunny 70 21.1 65 18.3 84 84 N N/A 30.07 1018 10 16 N/A
10:53 am 10:53 Sunny 77 25 64 17.8 64 64 N N/A 30.06 1018 10 16 N/A
11:53 am 11:53 Sunny 82 27.8 64 17.8 55 55 N N/A 30.05 1018 10 16 N/A
12:53 pm 12:53 Sunny 84 28.9 64 17.8 51 51 N N/A 30.04 1017 10 16 N/A
1:53 pm 13:53 Sunny 87 30.6 64 17.8 46 46 VRB 5 7 30.02 1017 10 16 N/A
2:53 pm 14:53 Sunny 86 30 66 18.9 51 51 SSE 3 6 30.00 1016 10 16 N/A
3:53 pm 15:53 Mostly Sunny 87 30.6 65 18.3 48 48 S 5 7 29.98 1015 10 16 N/A
4:53 pm 16:53 Sunny 85 29.4 67 19.4 55 55 SSW 6 9 29.97 1015 10 16 N/A
5:53 pm 17:53 Sunny 81 27.2 71 21.7 72 72 SSE 3 6 29.97 1015 10 16 N/A
6:53 pm 18:53 Sunny 78 25.6 73 22.8 85 85 SSE 3 6 29.97 1015 10 16 N/A
7:53 pm 19:53 Clear 74 23.3 71 21.7 91 91 N N/A 29.97 1015 10 16 N/A
8:53 pm 20:53 Clear 72 22.2 69 20.6 91 91 N N/A 29.97 1015 10 16 N/A
9:53 pm 21:53 Clear 69 20.6 68 20 96 96 N N/A 29.98 1015 10 16 N/A
10:53 pm 22:53 Clear 68 20 67 19.4 96 96 N N/A 29.98 1015 10 16 N/A
11:53 pm 23:53 Clear 67 19.4 66 18.9 97 97 N N/A 29.98 1015 9 14 N/A

Powered by AerisWeather